Shelbyville, IN

7:32 PM EST on November 20, 2019 (GMT -0500)
Shelbyville Municipal

Weather History for KGEZ - September, 2019

Change the Weather History Date:

Monday, September 16, 2019

  Actual Average Record
Temperature  
Mean Temperature 77 °F 66 °F  
Max Temperature 88 °F 78 °F 90 °F (2018)
Min Temperature 66 °F 53 °F 38 °F (2011)
Degree Days  
Heating Degree Days 0 2  
Month to date heating degree days 0 17  
Since 1 July heating degree days 0 23  
Cooling Degree Days 12 3  
Month to date cooling degree days 121 68  
Year to date cooling degree days 1182 874  
Growing Degree Days 26 (Base 50)    
Moisture  
Dew Point 64 °F    
Average Humidity 69    
Maximum Humidity 87    
Minimum Humidity 48    
Precipitation  
Precipitation 0.00 in 0.09 in 0.18 in (2005)
Month to date precipitation 0.52 1.74  
Year to date precipitation 31.98 32.02  
Sea Level Pressure  
Sea Level Pressure 30.04 in    
Wind  
Wind Speed 4 mph (North)    
Max Wind Speed 9 mph    
Max Gust Speed -    
Visibility 10 miles    
Events      
T = Trace of Precipitation, MM = Missing Value Source: NWS Daily Summary

Daily Weather History Graph

Daily Weather History Graph

Search for Another Location

Airport or City:

Astronomy

Sep. 16, 2019 Rise Set
Actual Time 7:25 AM EDT 7:50 PM EDT
Civil Twilight 6:58 AM EDT 8:17 PM EDT
Nautical Twilight 6:26 AM EDT 8:49 PM EDT
Astronomical Twilight 5:53 AM EDT 9:21 PM EDT
Moon 9:25 PM EDT (9/16) 9:31 AM EDT (9/16)
Length of Visible Light 13h 19m
Length of Day
12h 25m
Waning Gibbous, 94% of the Moon is Illuminated
Sep 16
Waning Gibbous
Sep 21
Last Quarter
Sep 28
New
Oct 5
First Quarter
Oct 13
Full

Hourly Weather History & Observations

Time (EDT) Temp. Heat Index Dew Point Humidity Pressure Visibility Wind Dir Wind Speed Gust Speed Precip Events Conditions
12:53 AM 72.0 °F - 60.1 °F 66% 30.05 in 10.0 mi SSW 5.8 mph - N/A   Overcast
1:53 AM 69.1 °F - 60.1 °F 73% 30.04 in 10.0 mi South 4.6 mph - N/A   Partly Cloudy
2:53 AM 70.0 °F - 60.1 °F 71% 30.04 in 10.0 mi South 5.8 mph - N/A   Mostly Cloudy
3:53 AM 70.0 °F - 61.0 °F 73% 30.04 in 10.0 mi South 4.6 mph - N/A   Overcast
4:53 AM 70.0 °F - 62.1 °F 76% 30.04 in 10.0 mi South 4.6 mph - N/A   Mostly Cloudy
5:53 AM 66.9 °F - 62.1 °F 84% 30.04 in 10.0 mi Calm Calm - N/A   Scattered Clouds
6:53 AM 66.0 °F - 62.1 °F 87% 30.05 in 10.0 mi Calm Calm - N/A   Mostly Cloudy
7:53 AM 68.0 °F - 63.0 °F 84% 30.07 in 10.0 mi Calm Calm - N/A   Mostly Cloudy
8:53 AM 72.0 °F - 64.0 °F 76% 30.08 in 10.0 mi Calm Calm - N/A   Scattered Clouds
9:53 AM 75.9 °F - 64.9 °F 69% 30.08 in 10.0 mi Calm Calm - N/A   Clear
12:53 PM 84.0 °F 87.8 °F 69.1 °F 61% 30.07 in 10.0 mi NNW 8.1 mph - N/A   Partly Cloudy
1:53 PM 84.9 °F 88.8 °F 69.1 °F 59% 30.06 in 10.0 mi North 3.5 mph - N/A   Mostly Cloudy
2:53 PM 87.1 °F 91.3 °F 69.1 °F 55% 30.04 in 10.0 mi Variable 5.8 mph - N/A   Scattered Clouds
3:53 PM 87.1 °F 89.9 °F 66.9 °F 51% 30.02 in 10.0 mi North 9.2 mph - N/A   Clear
4:53 PM 87.1 °F 89.9 °F 66.9 °F 51% 30.01 in 10.0 mi NNE 5.8 mph - N/A   Partly Cloudy
5:53 PM 87.1 °F 88.9 °F 64.9 °F 48% 30.01 in 10.0 mi North 5.8 mph - N/A   Clear
6:53 PM 84.0 °F 86.5 °F 66.9 °F 56% 30.01 in 10.0 mi North 3.5 mph - N/A   Clear
7:53 PM 78.1 °F - 66.0 °F 66% 30.01 in 10.0 mi North 3.5 mph - N/A   Clear
8:53 PM 73.9 °F - 64.9 °F 73% 30.03 in 10.0 mi North 4.6 mph - N/A   Clear
9:53 PM 73.0 °F - 64.9 °F 76% 30.04 in 10.0 mi NNE 6.9 mph - N/A   Clear
10:53 PM 73.0 °F - 64.9 °F 76% 30.05 in 10.0 mi NNE 6.9 mph - N/A   Clear
11:53 PM 71.1 °F - 64.0 °F 78% 30.05 in 10.0 mi NNE 5.8 mph - N/A   Clear